DW9298 Weather Reports


time (UTC)temp
C
wind
direction
speed
KPH
gust
KPH
rain 1hr
cm
rain 24hr
cm
rain mn
cm
humidity
%
barometer
mb
20260507170044 15 256 20.9 25.7 0.00 0.43 0.00 40 1015.3
20260507164600 15 261 22.5 27.4 0.00 0.64 0.00 45 1015.6
20260507163043 13 253 20.9 27.4 0.00 0.64 0.00 48 1015.7
20260507161547 13 251 20.9 25.7 0.00 0.64 0.00 51 1015.8
20260507160042 12 245 22.5 27.4 0.00 0.64 0.00 49 1015.7
20260507154545 12 245 20.9 30.6 0.00 0.69 0.00 52 1015.7
20260507153048 12 238 24.1 29.0 0.00 0.69 0.00 50 1015.5
20260507151544 12 244 20.9 32.2 0.00 0.69 0.00 52 1015.7
20260507150043 12 254 24.1 32.2 0.00 0.69 0.00 50 1015.9
20260507144540 11 259 22.5 33.8 0.00 0.69 0.00 53 1015.8
20260507143046 11 258 25.7 35.4 0.00 0.69 0.00 53 1015.7
20260507141552 10 259 24.1 33.8 0.00 0.69 0.00 56 1015.6
20260507140043 8 247 27.4 33.8 0.00 0.69 0.00 59 1015.7
20260507134552 7 251 22.5 30.6 0.00 0.69 0.00 64 1015.8
20260507133044 6 257 25.7 32.2 0.00 0.69 0.00 64 1015.6
20260507131543 6 254 27.4 32.2 0.00 0.69 0.00 64 1015.3
20260507130044 5 246 24.1 32.2 0.00 0.69 0.00 66 1015.2
20260507124541 4 250 24.1 32.2 0.00 0.69 0.00 66 1015.0
20260507123039 3 253 25.7 30.6 0.00 0.69 0.00 67 1015.1
20260507121540 3 252 27.4 32.2 0.00 0.69 0.00 67 1014.8
20260507120046 2 246 27.4 32.2 0.00 0.69 0.00 68 1014.7
20260507114540 2 250 29.0 35.4 0.00 0.69 0.00 69 1014.6
20260507113040 2 244 27.4 32.2 0.00 0.69 0.00 71 1014.6
20260507111548 2 247 25.7 32.2 0.00 0.69 0.00 71 1014.5
20260507110059 2 241 25.7 32.2 0.00 0.69 0.00 71 1014.6
20260507104545 2 232 24.1 30.6 0.00 0.69 0.00 71 1014.6
20260507103041 2 244 24.1 32.2 0.00 0.69 0.00 71 1014.9
20260507101549 2 253 25.7 32.2 0.00 0.69 0.00 71 1015.0
20260507100040 2 238 25.7 30.6 0.00 0.69 0.00 73 1015.0
20260507094545 2 234 25.7 30.6 0.00 0.69 0.00 73 1015.1
20260507093047 2 240 25.7 32.2 0.00 0.69 0.00 72 1015.1
20260507091552 2 232 25.7 32.2 0.00 0.69 0.00 72 1015.1
20260507090055 2 238 25.7 32.2 0.00 0.69 0.00 73 1015.0
20260507084542 2 248 25.7 32.2 0.00 0.69 0.00 74 1015.1
20260507083043 2 238 27.4 35.4 0.00 0.69 0.00 75 1015.2
20260507081544 2 242 25.7 33.8 0.00 0.69 0.00 75 1015.3
20260507080040 2 240 29.0 35.4 0.00 0.69 0.00 76 1015.5
20260507074544 2 241 24.1 30.6 0.00 0.69 0.00 80 1015.6
20260507073041 1 238 25.7 33.8 0.00 0.69 0.00 82 1015.8
20260507071538 1 236 22.5 29.0 0.00 0.69 0.00 84 1015.9
20260507070057 1 240 20.9 25.7 0.00 0.69 0.00 85 1016.0
20260507064541 1 240 24.1 30.6 0.00 0.69 0.00 86 1016.2
20260507063039 0 229 22.5 27.4 0.00 0.69 0.00 86 1016.2
20260507061540 0 227 19.3 24.1 0.00 0.69 0.00 86 1016.5
20260507054547 0 239 19.3 22.5 0.00 0.69 0.69 84 1016.7
20260507053050 0 248 17.7 24.1 0.00 0.69 0.69 84 1016.8
20260507051541 1 242 17.7 22.5 0.00 0.69 0.69 83 1017.0
20260507050046 1 233 17.7 22.5 0.00 0.69 0.69 83 1017.4
20260507044547 1 235 11.3 16.1 0.00 0.69 0.69 84 1017.6
20260507043043 1 225 11.3 14.5 0.00 0.69 0.69 83 1017.8
20260507041543 1 214 9.7 12.9 0.00 0.69 0.69 83 1017.9
20260507040049 1 217 9.7 12.9 0.00 0.69 0.69 83 1018.0
20260507034554 1 220 6.4 9.7 0.00 0.69 0.69 81 1018.2
20260507033046 1 225 6.4 8.0 0.00 0.69 0.69 80 1018.2
20260507031544 1 217 6.4 8.0 0.00 0.69 0.69 79 1018.2
20260507030044 2 207 4.8 6.4 0.00 0.69 0.69 78 1018.2
20260507024552 2 205 4.8 8.0 0.00 0.71 0.69 77 1018.1
20260507023037 2 192 4.8 8.0 0.00 0.71 0.69 76 1018.0
20260507021548 3 210 4.8 8.0 0.00 0.71 0.69 75 1018.0
20260507020039 3 217 6.4 11.3 0.00 0.71 0.69 74 1017.8
20260507014551 4 213 9.7 14.5 0.00 0.71 0.69 72 1017.7
20260507013038 4 224 11.3 19.3 0.00 0.71 0.69 69 1017.7
20260507011546 5 227 12.9 24.1 0.00 0.71 0.69 68 1017.8
20260507010055 5 231 12.9 24.1 0.00 0.71 0.69 67 1017.8
20260507004543 5 205 16.1 22.5 0.00 0.74 0.69 66 1017.9
20260507003044 5 234 11.3 22.5 0.00 0.74 0.69 66 1018.1
20260507001551 6 225 12.9 19.3 0.00 0.74 0.69 65 1018.2
20260507000043 6 217 11.3 19.3 0.00 0.74 0.69 67 1018.4
20260506234548 6 250 11.3 20.9 0.00 0.79 0.69 67 1018.4
20260506233058 6 229 9.7 17.7 0.00 0.79 0.69 67 1018.5
20260506231545 6 229 16.1 24.1 0.00 0.79 0.69 69 1018.3
20260506230047 6 213 14.5 27.4 0.00 0.79 0.69 69 1018.4
20260506224541 6 194 14.5 25.7 0.00 0.84 0.69 71 1018.5
20260506223045 6 259 16.1 25.7 0.00 0.84 0.69 70 1018.6
20260506221547 5 249 16.1 24.1 0.00 0.84 0.69 75 1018.8
20260506220049 5 234 16.1 20.9 0.00 0.84 0.69 72 1018.9
20260506214544 5 243 11.3 19.3 0.00 0.86 0.69 73 1019.2
20260506213043 5 238 14.5 24.1 0.00 0.86 0.69 76 1019.2
20260506211548 4 239 9.7 19.3 0.00 0.86 0.69 75 1019.4
20260506210043 4 281 3.2 12.9 0.00 0.86 0.69 72 1019.5
20260506204548 5 292 8.0 12.9 0.00 0.94 0.69 70 1019.7
20260506203045 5 242 6.4 16.1 0.00 0.94 0.69 70 1019.9
20260506201545 5 209 4.8 12.9 0.00 0.94 0.69 76 1020.0
20260506200049 4 245 3.2 8.0 0.00 0.94 0.69 77 1020.1
20260506194544 3 190 3.2 9.7 0.03 0.97 0.69 80 1020.3
20260506193038 3 119 1.6 9.7 0.08 0.97 0.69 82 1020.5
20260506191545 3 272 1.6 6.4 0.13 0.97 0.69 83 1020.6
20260506190043 3 55 4.8 9.7 0.18 0.94 0.66 83 1020.8
20260506184546 3 355 3.2 11.3 0.20 0.97 0.64 85 1020.8
20260506183045 3 0 1.6 11.3 0.23 0.94 0.61 87 1020.9
20260506181544 3 22 4.8 14.5 0.23 0.86 0.56 89 1020.9
20260506180048 2 16 8.0 14.5 0.20 0.81 0.48 91 1021.0
20260506174554 2 5 11.3 16.1 0.20 0.76 0.43 92 1020.9
20260506173046 1 5 6.4 16.1 0.20 0.71 0.36 92 1020.8
20260506171540 1 24 4.8 16.1 0.20 0.64 0.30 93 1020.7